QPF
0.04 0.05 0.05 0.06 0.07 0.08 0.07 0.06 0.09 0.10 0.07 0.05 0.04 0.04 0.04 0.04 0.04 0.04 0.03 0.04 0.04 0.05 0.05 0.04 0.04 0.03 0.03 0.04 0.04 0.04 0.04 0.03 0.05 0.06 0.06 0.05 0.05 0.04 0.03 0.03 0.03 0.03 0.05
0.02 0.03 0.05 0.05 0.05 0.07 0.06 0.06 0.09 0.11 0.09 0.06 0.05 0.05 0.04 0.04 0.03 0.02 0.02 0.02 0.03 0.04 0.06 0.07 0.06 0.05 0.04 0.04 0.04 0.04 0.03 0.04 0.05 0.05 0.05 0.05 0.05 0.03 0.03 0.02 0.02 0.03 0.04
0.02 0.02 0.05 0.06 0.04 0.03 0.05 0.05 0.09 0.12 0.11 0.07 0.07 0.07 0.05 0.04 0.03 0.01 0.01 0.01 0.02 0.03 0.04 0.05 0.05 0.05 0.05 0.05 0.04 0.03 0.03 0.03 0.04 0.04 0.05 0.04 0.03 0.03 0.02 0.01 0.01 0.02 0.03
0.01 0.01 0.01 0.01 0.01 0.02 0.03 0.05 0.08 0.10 0.09 0.09 0.09 0.08 0.08 0.06 0.04 0.02 0.01 0.01 0.02 0.03 0.04 0.03 0.03 0.03 0.03 0.03 0.04 0.04 0.03 0.03 0.03 0.04 0.03 0.03 0.02 0.02 0.01 0.01 0.01 0.01 0.02
0.01 0.01 0.01 0.02 0.02 0.02 0.02 0.03 0.05 0.06 0.07 0.08 0.09 0.08 0.08 0.06 0.05 0.03 0.02 0.02 0.03 0.04 0.04 0.03 0.02 0.02 0.02 0.02 0.03 0.03 0.04 0.04 0.04 0.04 0.04 0.04 0.03 0.03 0.02 0.02 0.02 0.02 0.02
0.01 0.01 0.01 0.02 0.03 0.03 0.03 0.03 0.03 0.04 0.04 0.05 0.04 0.05 0.07 0.07 0.05 0.03 0.02 0.04 0.05 0.05 0.04 0.03 0.03 0.02 0.02 0.01 0.02 0.02 0.02 0.03 0.04 0.05 0.04 0.04 0.03 0.03 0.03 0.03 0.03 0.04 0.03
0.01 0.01 0.01 0.02 0.03 0.05 0.05 0.06 0.06 0.06 0.04 0.03 0.03 0.03 0.04 0.04 0.04 0.04 0.05 0.06 0.08 0.07 0.05 0.03 0.02 0.02 0.02 0.01 0.02 0.03 0.03 0.03 0.04 0.04 0.04 0.03 0.03 0.03 0.03 0.03 0.03 0.03 0.03
0.00 0.01 0.01 0.02 0.03 0.06 0.07 0.08 0.10 0.09 0.08 0.05 0.04 0.03 0.02 0.03 0.04 0.04 0.05 0.06 0.06 0.04 0.02 0.02 0.01 0.01 0.02 0.02 0.02 0.02 0.03 0.03 0.03 0.04 0.04 0.04 0.03 0.03 0.03 0.03 0.02 0.02 0.02
0.01 0.01 0.02 0.03 0.04 0.06 0.07 0.07 0.08 0.09 0.09 0.07 0.06 0.05 0.05 0.05 0.05 0.05 0.04 0.03 0.03 0.02 0.02 0.02 0.01 0.01 0.01 0.01 0.02 0.02 0.03 0.03 0.03 0.03 0.03 0.03 0.02 0.02 0.02 0.03 0.03 0.02 0.02
0.01 0.01 0.01 0.01 0.03 0.03 0.05 0.05 0.05 0.05 0.05 0.06 0.06 0.06 0.05 0.05 0.04 0.03 0.03 0.03 0.03 0.02 0.02 0.01 0.01 0.01 0.01 0.01 0.02 0.03 0.04 0.04 0.04 0.03 0.03 0.03 0.02 0.02 0.02 0.03 0.03 0.02 0.03
0.00 0.00 0.01 0.01 0.01 0.02 0.04 0.05 0.06 0.06 0.05 0.05 0.06 0.08 0.08 0.06 0.05 0.03 0.02 0.02 0.03 0.02 0.03 0.02 0.01 0.01 0.01 0.02 0.02 0.02 0.03 0.04 0.05 0.05 0.04 0.03 0.03 0.03 0.03 0.04 0.04 0.04 0.04
0.00 0.01 0.01 0.01 0.02 0.03 0.04 0.03 0.04 0.05 0.05 0.05 0.06 0.08 0.10 0.09 0.07 0.05 0.05 0.06 0.06 0.04 0.04 0.04 0.04 0.04 0.03 0.02 0.02 0.01 0.01 0.02 0.05 0.07 0.06 0.05 0.04 0.03 0.02 0.03 0.03 0.03 0.03
0.01 0.01 0.01 0.01 0.02 0.03 0.03 0.02 0.01 0.02 0.03 0.04 0.06 0.11 0.15 0.14 0.12 0.10 0.09 0.08 0.07 0.06 0.06 0.06 0.07 0.06 0.04 0.03 0.02 0.01 0.01 0.01 0.02 0.05 0.06 0.07 0.03 0.02 0.02 0.02 0.02 0.02 0.02
0.03 0.02 0.01 0.01 0.02 0.02 0.02 0.02 0.01 0.01 0.01 0.03 0.10 0.17 0.18 0.13 0.09 0.08 0.07 0.06 0.06 0.05 0.04 0.04 0.04 0.04 0.03 0.03 0.02 0.03 0.03 0.02 0.01 0.03 0.05 0.07 0.03 0.01 0.01 0.02 0.02 0.02 0.02
0.03 0.02 0.02 0.01 0.01 0.01 0.01 0.01 0.00 0.01 0.01 0.01 0.04 0.05 0.06 0.04 0.03 0.03 0.03 0.03 0.03 0.03 0.03 0.02 0.02 0.02 0.01 0.01 0.01 0.02 0.02 0.01 0.02 0.03 0.05 0.07 0.04 0.01 0.01 0.02 0.02 0.02 0.02
0.03 0.02 0.01 0.01 0.01 0.01 0.01 0.00 0.00 0.00 0.01 0.01 0.01 0.02 0.03 0.03 0.03 0.03 0.03 0.03 0.04 0.04 0.03 0.02 0.01 0.01 0.01 0.01 0.01 0.01 0.01 0.01 0.03 0.03 0.05 0.07 0.03 0.01 0.02 0.02 0.02 0.02 0.02
0.02 0.02 0.02 0.02 0.02 0.01 0.01 0.00 0.00 0.00 0.00 0.01 0.01 0.01 0.01 0.02 0.02 0.03 0.04 0.04 0.03 0.03 0.03 0.02 0.02 0.02 0.02 0.01 0.01 0.01 0.01 0.02 0.03 0.03 0.05 0.05 0.02 0.01 0.02 0.03 0.03 0.03 0.03
0.02 0.02 0.02 0.02 0.02 0.01 0.01 0.00 0.00 0.00 0.00 0.01 0.01 0.01 0.01 0.01 0.02 0.02 0.05 0.04 0.03 0.02 0.02 0.02 0.01 0.02 0.01 0.01 0.01 0.01 0.01 0.03 0.02 0.02 0.04 0.03 0.01 0.01 0.02 0.03 0.03 0.03 0.03
0.01 0.01 0.01 0.02 0.02 0.01 0.00 0.00 0.00 0.00 0.01 0.01 0.01 0.01 0.01 0.01 0.01 0.02 0.04 0.04 0.03 0.02 0.02 0.01 0.01 0.01 0.01 0.01 0.01 0.01 0.03 0.03 0.02 0.02 0.02 0.02 0.02 0.02 0.03 0.02 0.03 0.03 0.03
0.01 0.00 0.01 0.01 0.01 0.01 0.01 0.01 0.00 0.00 0.01 0.01 0.01 0.01 0.01 0.01 0.01 0.01 0.03 0.04 0.04 0.04 0.03 0.02 0.02 0.02 0.01 0.02 0.02 0.02 0.03 0.03 0.02 0.02 0.02 0.02 0.02 0.03 0.04 0.03 0.03 0.03 0.03
0.00 0.00 0.00 0.00 0.00 0.01 0.01 0.01 0.01 0.02 0.03 0.04 0.03 0.02 0.01 0.01 0.02 0.03 0.03 0.03 0.05 0.06 0.06 0.04 0.04 0.03 0.03 0.04 0.03 0.03 0.03 0.02 0.01 0.01 0.01 0.01 0.02 0.03 0.04 0.04 0.04 0.04 0.04
0.00 0.00 0.00 0.00 0.00 0.00 0.00 0.00 0.01 0.01 0.01 0.02 0.03 0.03 0.03 0.03 0.03 0.04 0.04 0.04 0.05 0.06 0.08 0.07 0.06 0.07 0.07 0.07 0.06 0.05 0.04 0.03 0.02 0.01 0.01 0.02 0.02 0.02 0.03 0.04 0.04 0.04 0.05
0.00 0.00 0.00 0.00 0.00 0.00 0.00 0.00 0.00 0.00 0.00 0.00 0.01 0.01 0.01 0.02 0.03 0.03 0.03 0.03 0.03 0.04 0.04 0.04 0.04 0.06 0.07 0.08 0.08 0.07 0.04 0.03 0.02 0.02 0.02 0.02 0.03 0.04 0.04 0.04 0.04 0.04 0.05
0.00 0.00 0.00 0.00 0.00 0.00 0.00 0.00 0.00 0.00 0.00 0.00 0.00 0.01 0.01 0.01 0.01 0.02 0.02 0.03 0.03 0.04 0.03 0.03 0.04 0.04 0.04 0.05 0.05 0.05 0.04 0.03 0.03 0.02 0.03 0.03 0.04 0.05 0.05 0.05 0.05 0.04 0.04
0.00 0.01 0.01 0.00 0.00 0.00 0.00 0.00 0.00 0.00 0.00 0.00 0.00 0.00 0.01 0.01 0.01 0.01 0.02 0.03 0.04 0.04 0.03 0.03 0.03 0.02 0.03 0.04 0.04 0.03 0.03 0.03 0.03 0.04 0.05 0.05 0.04 0.05 0.05 0.06 0.06 0.04 0.03
0.01 0.01 0.00 0.00 0.00 0.00 0.00 0.00 0.00 0.00 0.00 0.00 0.00 0.00 0.01 0.01 0.01 0.01 0.01 0.02 0.03 0.03 0.04 0.04 0.04 0.04 0.04 0.04 0.03 0.02 0.02 0.03 0.04 0.03 0.03 0.03 0.04 0.04 0.04 0.04 0.04 0.05 0.03
MSLP
1010.37 1010.47 1010.59 1010.72 1010.86 1011.02 1011.20 1011.42 1011.67 1011.94 1012.22 1012.48 1012.71 1012.90 1013.03 1013.12 1013.19 1013.28 1013.40 1013.57 1013.83 1014.15 1014.53 1014.95 1015.39 1015.82 1016.24 1016.62 1016.98 1017.32 1017.66 1017.99 1018.33 1018.65 1018.95 1019.22 1019.43 1019.59 1019.68 1019.71 1019.71 1019.69 1019.67
1010.55 1010.66 1010.77 1010.87 1010.97 1011.07 1011.19 1011.35 1011.56 1011.82 1012.11 1012.40 1012.66 1012.86 1013.00 1013.09 1013.13 1013.16 1013.23 1013.36 1013.57 1013.87 1014.24 1014.67 1015.13 1015.57 1016.00 1016.38 1016.73 1017.05 1017.35 1017.66 1017.97 1018.30 1018.63 1018.94 1019.22 1019.45 1019.62 1019.73 1019.78 1019.80 1019.79
1010.78 1010.92 1011.04 1011.12 1011.16 1011.20 1011.25 1011.35 1011.52 1011.76 1012.04 1012.34 1012.62 1012.84 1012.99 1013.06 1013.08 1013.07 1013.08 1013.15 1013.31 1013.57 1013.92 1014.34 1014.80 1015.26 1015.68 1016.07 1016.40 1016.70 1016.97 1017.25 1017.55 1017.86 1018.20 1018.55 1018.88 1019.18 1019.43 1019.62 1019.75 1019.83 1019.86
1011.07 1011.25 1011.38 1011.45 1011.46 1011.44 1011.42 1011.45 1011.56 1011.75 1012.01 1012.30 1012.59 1012.82 1012.97 1013.02 1013.00 1012.95 1012.90 1012.91 1013.01 1013.22 1013.54 1013.94 1014.39 1014.85 1015.29 1015.68 1016.01 1016.29 1016.55 1016.81 1017.08 1017.39 1017.73 1018.10 1018.47 1018.82 1019.14 1019.40 1019.61 1019.76 1019.86
1011.39 1011.62 1011.79 1011.86 1011.84 1011.77 1011.68 1011.63 1011.66 1011.79 1012.00 1012.26 1012.52 1012.74 1012.87 1012.91 1012.86 1012.76 1012.65 1012.60 1012.64 1012.80 1013.07 1013.45 1013.89 1014.36 1014.80 1015.20 1015.55 1015.84 1016.11 1016.36 1016.62 1016.92 1017.26 1017.63 1018.03 1018.42 1018.78 1019.11 1019.39 1019.61 1019.78
1011.70 1011.98 1012.19 1012.28 1012.25 1012.13 1011.98 1011.84 1011.79 1011.83 1011.96 1012.16 1012.38 1012.56 1012.66 1012.67 1012.59 1012.45 1012.30 1012.19 1012.17 1012.28 1012.51 1012.86 1013.29 1013.76 1014.22 1014.65 1015.03 1015.35 1015.64 1015.91 1016.18 1016.48 1016.82 1017.19 1017.59 1018.00 1018.40 1018.77 1019.10 1019.39 1019.64
1011.92 1012.27 1012.53 1012.65 1012.62 1012.46 1012.25 1012.03 1011.88 1011.82 1011.86 1011.97 1012.11 1012.23 1012.29 1012.27 1012.15 1011.98 1011.80 1011.65 1011.60 1011.66 1011.86 1012.18 1012.60 1013.07 1013.56 1014.02 1014.44 1014.81 1015.14 1015.45 1015.75 1016.06 1016.40 1016.77 1017.17 1017.58 1018.00 1018.40 1018.78 1019.14 1019.45
1012.01 1012.42 1012.73 1012.88 1012.86 1012.68 1012.42 1012.13 1011.88 1011.71 1011.63 1011.64 1011.69 1011.74 1011.75 1011.68 1011.55 1011.36 1011.16 1011.00 1010.92 1010.96 1011.14 1011.44 1011.85 1012.33 1012.83 1013.33 1013.80 1014.23 1014.62 1014.97 1015.31 1015.65 1016.00 1016.38 1016.77 1017.19 1017.61 1018.04 1018.46 1018.86 1019.26
1011.95 1012.41 1012.76 1012.93 1012.92 1012.74 1012.43 1012.08 1011.74 1011.46 1011.27 1011.17 1011.12 1011.09 1011.03 1010.93 1010.78 1010.59 1010.40 1010.25 1010.18 1010.21 1010.38 1010.67 1011.08 1011.56 1012.08 1012.62 1013.13 1013.62 1014.06 1014.47 1014.86 1015.23 1015.61 1015.99 1016.39 1016.80 1017.24 1017.68 1018.14 1018.60 1019.07
1011.76 1012.23 1012.60 1012.80 1012.79 1012.60 1012.27 1011.86 1011.44 1011.07 1010.77 1010.56 1010.41 1010.29 1010.19 1010.06 1009.91 1009.74 1009.57 1009.45 1009.40 1009.46 1009.63 1009.93 1010.34 1010.82 1011.36 1011.91 1012.46 1012.99 1013.49 1013.95 1014.38 1014.79 1015.20 1015.60 1016.01 1016.43 1016.87 1017.34 1017.84 1018.36 1018.90
1011.48 1011.94 1012.31 1012.50 1012.49 1012.29 1011.93 1011.48 1011.00 1010.55 1010.16 1009.85 1009.61 1009.42 1009.26 1009.12 1008.97 1008.83 1008.72 1008.65 1008.65 1008.74 1008.94 1009.26 1009.67 1010.15 1010.69 1011.26 1011.83 1012.39 1012.92 1013.42 1013.90 1014.34 1014.78 1015.20 1015.62 1016.06 1016.52 1017.01 1017.54 1018.11 1018.72
1011.19 1011.61 1011.94 1012.10 1012.07 1011.85 1011.48 1011.00 1010.47 1009.96 1009.49 1009.10 1008.78 1008.53 1008.33 1008.17 1008.04 1007.94 1007.87 1007.87 1007.93 1008.08 1008.32 1008.66 1009.08 1009.57 1010.10 1010.67 1011.25 1011.82 1012.38 1012.91 1013.41 1013.89 1014.35 1014.79 1015.23 1015.68 1016.15 1016.66 1017.22 1017.84 1018.50
1010.96 1011.31 1011.57 1011.68 1011.60 1011.36 1010.96 1010.46 1009.90 1009.35 1008.83 1008.37 1007.99 1007.68 1007.44 1007.27 1007.15 1007.08 1007.08 1007.14 1007.27 1007.48 1007.77 1008.14 1008.57 1009.06 1009.60 1010.16 1010.73 1011.31 1011.88 1012.43 1012.95 1013.45 1013.92 1014.38 1014.83 1015.29 1015.77 1016.29 1016.86 1017.50 1018.20
1010.81 1011.07 1011.24 1011.27 1011.14 1010.86 1010.44 1009.92 1009.35 1008.76 1008.20 1007.70 1007.26 1006.91 1006.64 1006.45 1006.34 1006.30 1006.35 1006.47 1006.66 1006.93 1007.26 1007.66 1008.12 1008.62 1009.15 1009.70 1010.27 1010.85 1011.42 1011.98 1012.51 1013.02 1013.51 1013.97 1014.43 1014.88 1015.35 1015.87 1016.44 1017.08 1017.78
1010.74 1010.90 1010.96 1010.91 1010.72 1010.39 1009.95 1009.42 1008.84 1008.23 1007.65 1007.12 1006.64 1006.25 1005.95 1005.74 1005.63 1005.61 1005.69 1005.86 1006.10 1006.41 1006.79 1007.22 1007.70 1008.20 1008.74 1009.29 1009.85 1010.43 1011.00 1011.56 1012.10 1012.62 1013.11 1013.58 1014.02 1014.46 1014.92 1015.41 1015.95 1016.56 1017.25
1010.69 1010.74 1010.72 1010.58 1010.33 1009.96 1009.50 1008.97 1008.39 1007.79 1007.20 1006.64 1006.14 1005.72 1005.39 1005.16 1005.04 1005.03 1005.13 1005.32 1005.60 1005.94 1006.35 1006.81 1007.29 1007.81 1008.34 1008.89 1009.46 1010.03 1010.60 1011.17 1011.72 1012.24 1012.73 1013.19 1013.63 1014.05 1014.47 1014.93 1015.43 1015.99 1016.64
1010.59 1010.57 1010.46 1010.25 1009.95 1009.57 1009.10 1008.57 1008.01 1007.42 1006.83 1006.27 1005.76 1005.32 1004.97 1004.73 1004.60 1004.58 1004.68 1004.88 1005.17 1005.54 1005.96 1006.43 1006.92 1007.44 1007.97 1008.52 1009.08 1009.65 1010.22 1010.79 1011.35 1011.88 1012.38 1012.84 1013.26 1013.66 1014.06 1014.47 1014.92 1015.43 1016.01
1010.38 1010.30 1010.15 1009.91 1009.58 1009.19 1008.74 1008.23 1007.69 1007.12 1006.56 1006.01 1005.50 1005.06 1004.70 1004.45 1004.31 1004.28 1004.38 1004.58 1004.87 1005.24 1005.66 1006.12 1006.61 1007.11 1007.64 1008.18 1008.73 1009.30 1009.87 1010.45 1011.01 1011.55 1012.05 1012.51 1012.93 1013.32 1013.69 1014.07 1014.47 1014.93 1015.45
1010.04 1009.94 1009.77 1009.52 1009.20 1008.83 1008.40 1007.93 1007.42 1006.89 1006.36 1005.84 1005.35 1004.92 1004.57 1004.32 1004.18 1004.15 1004.24 1004.44 1004.72 1005.07 1005.48 1005.92 1006.39 1006.88 1007.38 1007.90 1008.44 1008.99 1009.56 1010.14 1010.70 1011.24 1011.76 1012.23 1012.65 1013.04 1013.40 1013.76 1014.14 1014.56 1015.04
1009.58 1009.49 1009.33 1009.10 1008.82 1008.48 1008.09 1007.66 1007.20 1006.72 1006.23 1005.75 1005.29 1004.89 1004.56 1004.33 1004.20 1004.18 1004.27 1004.46 1004.73 1005.06 1005.45 1005.86 1006.30 1006.75 1007.22 1007.71 1008.22 1008.76 1009.31 1009.87 1010.43 1010.98 1011.49 1011.98 1012.42 1012.82 1013.19 1013.55 1013.93 1014.33 1014.79
1009.05 1008.99 1008.87 1008.68 1008.44 1008.15 1007.82 1007.45 1007.04 1006.60 1006.16 1005.72 1005.31 1004.95 1004.65 1004.45 1004.34 1004.34 1004.44 1004.63 1004.88 1005.20 1005.56 1005.94 1006.34 1006.75 1007.18 1007.63 1008.10 1008.60 1009.11 1009.65 1010.20 1010.73 1011.26 1011.75 1012.21 1012.63 1013.03 1013.42 1013.81 1014.22 1014.68
1008.52 1008.50 1008.42 1008.29 1008.11 1007.87 1007.59 1007.27 1006.91 1006.52 1006.13 1005.74 1005.37 1005.05 1004.80 1004.64 1004.56 1004.58 1004.70 1004.88 1005.14 1005.44 1005.77 1006.12 1006.48 1006.85 1007.24 1007.64 1008.06 1008.51 1008.98 1009.48 1009.99 1010.51 1011.02 1011.52 1011.99 1012.44 1012.87 1013.29 1013.72 1014.17 1014.65
1008.04 1008.05 1008.02 1007.94 1007.81 1007.63 1007.40 1007.13 1006.81 1006.47 1006.12 1005.77 1005.45 1005.18 1004.97 1004.84 1004.80 1004.84 1004.97 1005.17 1005.42 1005.71 1006.02 1006.35 1006.68 1007.01 1007.35 1007.70 1008.08 1008.47 1008.90 1009.34 1009.81 1010.29 1010.78 1011.26 1011.74 1012.20 1012.66 1013.11 1013.58 1014.07 1014.59
1007.65 1007.68 1007.67 1007.63 1007.55 1007.41 1007.23 1007.00 1006.72 1006.42 1006.11 1005.80 1005.52 1005.28 1005.11 1005.02 1005.00 1005.07 1005.21 1005.41 1005.66 1005.94 1006.24 1006.55 1006.86 1007.16 1007.47 1007.78 1008.11 1008.46 1008.82 1009.22 1009.63 1010.06 1010.50 1010.95 1011.41 1011.87 1012.34 1012.83 1013.33 1013.86 1014.42
1007.34 1007.35 1007.36 1007.34 1007.28 1007.19 1007.04 1006.85 1006.62 1006.35 1006.08 1005.81 1005.56 1005.36 1005.22 1005.14 1005.15 1005.22 1005.37 1005.57 1005.81 1006.09 1006.37 1006.67 1006.96 1007.25 1007.54 1007.83 1008.12 1008.42 1008.74 1009.07 1009.42 1009.79 1010.18 1010.58 1011.01 1011.45 1011.91 1012.40 1012.93 1013.48 1014.08
1007.07 1007.05 1007.04 1007.02 1006.99 1006.91 1006.80 1006.65 1006.46 1006.25 1006.02 1005.79 1005.58 1005.40 1005.28 1005.22 1005.23 1005.30 1005.44 1005.62 1005.85 1006.11 1006.39 1006.68 1006.96 1007.25 1007.52 1007.80 1008.07 1008.34 1008.61 1008.90 1009.19 1009.50 1009.82 1010.16 1010.54 1010.94 1011.38 1011.86 1012.38 1012.95 1013.56
Thickness
5744 5743 5743 5741 5738 5735 5732 5728 5725 5722 5718 5713 5709 5705 5703 5702 5701 5699 5698 5697 5696 5695 5693 5692 5690 5689 5688 5688 5687 5686 5684 5684 5683 5682 5681 5682 5684 5685 5685 5685 5684 5684 5684
5739 5739 5738 5737 5734 5731 5728 5725 5722 5719 5716 5711 5707 5703 5700 5697 5695 5694 5692 5691 5690 5689 5688 5686 5685 5684 5683 5682 5682 5680 5679 5678 5678 5676 5673 5673 5675 5678 5680 5680 5680 5680 5679
5736 5735 5734 5732 5730 5727 5725 5723 5719 5716 5712 5708 5703 5698 5694 5691 5688 5686 5686 5686 5685 5683 5682 5681 5680 5679 5678 5677 5677 5676 5674 5673 5673 5672 5670 5667 5668 5670 5673 5674 5675 5675 5675
5735 5733 5731 5728 5726 5724 5722 5719 5715 5711 5707 5703 5698 5693 5689 5684 5683 5682 5681 5680 5680 5678 5677 5676 5675 5674 5673 5672 5672 5671 5670 5669 5667 5667 5667 5667 5667 5663 5664 5666 5668 5669 5669
5733 5731 5730 5727 5724 5721 5717 5714 5710 5706 5702 5699 5695 5690 5685 5682 5679 5678 5676 5675 5675 5674 5673 5671 5669 5668 5668 5667 5666 5666 5665 5664 5663 5662 5662 5661 5660 5660 5659 5659 5661 5662 5664
5730 5728 5726 5723 5720 5717 5713 5709 5705 5701 5698 5694 5690 5686 5682 5678 5675 5673 5672 5670 5669 5668 5667 5667 5665 5664 5663 5662 5661 5661 5660 5659 5659 5658 5658 5658 5656 5656 5654 5654 5654 5655 5657
5726 5723 5721 5718 5715 5711 5708 5704 5700 5696 5693 5689 5686 5682 5679 5675 5673 5671 5669 5666 5664 5663 5663 5662 5660 5659 5658 5657 5656 5655 5655 5654 5654 5653 5653 5653 5653 5652 5651 5650 5649 5648 5651
5723 5721 5719 5715 5711 5707 5703 5699 5695 5691 5688 5684 5681 5678 5675 5671 5669 5667 5666 5664 5662 5661 5660 5658 5657 5655 5653 5652 5650 5650 5650 5649 5649 5649 5648 5648 5648 5647 5647 5646 5644 5643 5644
5720 5718 5715 5712 5707 5703 5699 5695 5691 5687 5683 5680 5676 5674 5672 5668 5666 5664 5662 5661 5660 5658 5656 5654 5652 5650 5648 5646 5645 5644 5644 5644 5643 5643 5643 5643 5643 5642 5642 5641 5640 5638 5638
5715 5713 5710 5706 5703 5699 5695 5692 5687 5683 5680 5676 5672 5671 5667 5665 5662 5659 5657 5656 5655 5653 5651 5649 5647 5645 5643 5641 5640 5639 5639 5638 5637 5637 5637 5637 5637 5636 5635 5635 5634 5634 5634
5710 5707 5704 5701 5698 5694 5690 5687 5683 5680 5676 5672 5669 5666 5663 5660 5657 5654 5653 5651 5649 5648 5646 5644 5642 5640 5638 5636 5634 5634 5633 5632 5632 5632 5632 5632 5631 5630 5629 5629 5628 5628 5628
5705 5702 5699 5696 5692 5689 5685 5682 5679 5676 5672 5669 5666 5663 5660 5656 5654 5652 5650 5647 5645 5644 5642 5640 5638 5636 5634 5632 5630 5629 5628 5627 5627 5627 5626 5626 5626 5624 5624 5623 5623 5624 5624
5699 5695 5692 5690 5687 5684 5681 5678 5674 5671 5668 5665 5662 5659 5657 5653 5651 5648 5646 5643 5641 5639 5638 5636 5633 5632 5630 5628 5626 5625 5624 5623 5622 5622 5622 5622 5620 5620 5620 5619 5619 5619 5620
5693 5689 5686 5683 5680 5678 5675 5672 5669 5667 5664 5660 5658 5655 5653 5650 5647 5645 5642 5640 5639 5637 5635 5632 5630 5628 5626 5624 5622 5620 5620 5619 5618 5617 5617 5617 5617 5616 5616 5616 5615 5615 5614
5687 5683 5680 5676 5674 5672 5670 5667 5664 5662 5660 5656 5653 5651 5649 5646 5643 5641 5638 5636 5635 5633 5631 5628 5626 5623 5622 5620 5618 5617 5616 5614 5614 5613 5612 5612 5613 5613 5613 5613 5612 5611 5610
5681 5678 5675 5672 5669 5667 5664 5662 5659 5657 5655 5651 5648 5647 5644 5641 5639 5637 5635 5633 5631 5628 5626 5623 5621 5618 5617 5616 5613 5612 5611 5610 5609 5608 5608 5608 5608 5608 5608 5608 5608 5608 5607
5677 5673 5670 5667 5665 5662 5660 5657 5655 5653 5650 5647 5644 5642 5639 5636 5635 5633 5630 5627 5625 5624 5621 5619 5616 5614 5612 5611 5609 5607 5606 5605 5604 5603 5602 5603 5604 5603 5603 5603 5602 5603 5603
5673 5670 5667 5663 5660 5658 5655 5652 5650 5647 5644 5641 5639 5637 5635 5632 5630 5627 5625 5623 5621 5618 5617 5614 5612 5610 5609 5607 5605 5603 5601 5600 5599 5598 5597 5597 5598 5598 5597 5597 5597 5597 5599
5670 5666 5663 5660 5656 5653 5650 5647 5644 5642 5639 5636 5634 5632 5630 5627 5625 5622 5620 5618 5616 5614 5612 5610 5608 5606 5604 5602 5600 5598 5596 5595 5595 5594 5593 5593 5593 5593 5591 5591 5591 5592 5594
5666 5662 5658 5654 5651 5648 5645 5641 5639 5636 5634 5632 5630 5628 5625 5622 5620 5618 5616 5614 5611 5610 5608 5606 5604 5601 5600 5598 5596 5594 5592 5591 5590 5590 5589 5589 5588 5587 5586 5585 5585 5586 5588
5660 5657 5652 5648 5645 5642 5639 5635 5633 5630 5629 5627 5625 5623 5621 5618 5616 5614 5612 5609 5607 5605 5603 5601 5599 5597 5596 5594 5592 5590 5588 5587 5586 5585 5585 5585 5583 5582 5581 5580 5580 5581 5581
5654 5650 5645 5641 5638 5636 5633 5629 5627 5626 5624 5621 5619 5617 5615 5613 5613 5609 5607 5605 5602 5599 5598 5596 5595 5594 5592 5590 5588 5586 5584 5583 5581 5581 5581 5580 5579 5577 5576 5576 5575 5575 5574
5647 5643 5639 5635 5632 5630 5627 5624 5623 5621 5619 5616 5613 5611 5609 5608 5606 5603 5602 5599 5597 5595 5594 5592 5591 5590 5588 5586 5584 5582 5581 5579 5577 5577 5576 5575 5574 5573 5572 5572 5571 5570 5571
5640 5637 5632 5628 5626 5624 5622 5619 5618 5615 5613 5609 5607 5605 5603 5602 5600 5598 5596 5594 5592 5591 5590 5589 5587 5586 5584 5583 5582 5580 5578 5575 5574 5572 5571 5570 5569 5568 5568 5568 5568 5568 5568
5633 5630 5626 5623 5621 5619 5616 5615 5613 5610 5606 5603 5601 5599 5597 5596 5594 5593 5591 5590 5589 5587 5586 5585 5583 5581 5581 5580 5577 5575 5575 5573 5571 5569 5568 5567 5566 5566 5566 5566 5566 5565 5565
5627 5623 5621 5618 5616 5614 5612 5610 5608 5604 5601 5598 5596 5594 5592 5591 5589 5588 5587 5587 5586 5585 5583 5581 5578 5578 5577 5576 5574 5573 5571 5569 5568 5565 5565 5564 5563 5563 5563 5563 5563 5563 5562